Overview Statistics Trail Chart Weather Telemetry Raw packets
 

This is the latest recevied weather packets stored in our database for station/object KB9HUO. If no packets are shown the sender has not sent any weather packets the latest 10 day(s).

<< 6 7 8 9 10 11 12 >>
Time Temp. Humidity Pressure Rain* Wind** Luminosity Snow
1788620326 28.33° C 72% 1016.3 hPa 0 mm - 90 W/m² -
1788620021 28.33° C 72% 1016.1 hPa 0 mm - 75 W/m² -
1788619719 27.78° C 73% 1016.2 hPa 0 mm - 115 W/m² -
1788619415 27.78° C 74% 1016.1 hPa 0 mm - 65 W/m² -
1788619113 27.78° C 74% 1016.1 hPa 0 mm - 66 W/m² -
1788618808 27.78° C 74% 1016.3 hPa 0 mm - 66 W/m² -
1788618507 27.22° C 78% 1016.3 hPa 0 mm - 64 W/m² -
1788618201 27.22° C 79% 1016.5 hPa 0 mm - 60 W/m² -
1788617892 26.67° C 79% 1016.4 hPa 0 mm - 58 W/m² -
1788617587 26.11° C 80% 1016.4 hPa 0 mm - 58 W/m² -
1788617297 26.67° C 79% 1016.6 hPa 0 mm - 48 W/m² -
1788616982 26.67° C 78% 1016.4 hPa 0 mm - 61 W/m² -
1788616681 26.11° C 78% 1016.7 hPa 0 mm - 71 W/m² -
1788616372 26.11° C 79% 1016.5 hPa 0 mm - 68 W/m² -
1788616071 26.11° C 79% 1016.3 hPa 0 mm - 44 W/m² -
1788615765 25.56° C 83% 1016.4 hPa 0 mm - 59 W/m² -
1788615460 25.56° C 85% 1016.5 hPa 0 mm - 95 W/m² -
1788615155 25.56° C 86% 1016.6 hPa 0 mm - 60 W/m² -
1788614854 25° C 87% 1016.6 hPa 0 mm - 61 W/m² -
1788614549 25° C 90% 1016.6 hPa 0 mm - 33 W/m² -
1788614245 25° C 92% 1016.5 hPa 0 mm - 24 W/m² -
1788613940 25° C 95% 1016.6 hPa 0 mm - 33 W/m² -
1788613640 24.44° C 97% 1016.4 hPa 0 mm - 42 W/m² -
1788613339 24.44° C 98% 1016.5 hPa 0 mm - 40 W/m² -
1788613034 24.44° C 98% 1015.7 hPa 0 mm - 38 W/m² -

* Rain latest hour (hover to see other rain measurements)
** Current wind speed in m/s (hover to see current wind gust speed)